Location: Poughquag
(41.6090°N, 73.6820°W)
Time: 08:30:01
(UTC-05:00)

Vanguard 1 - Pass Details

Date: 02 December 2023
Orbit: 653 x 3826 km, 34.3° (Epoch: 25 February)

Event Time Altitude Azimuth Distance (km) Brightness Sun altitude
Rises 02:46:03 0° 282° (WNW) 7,907 - -47.2°
Reaches altitude 10° 02:55:36 10° 263° (W) 6,527 - -45.5°
Maximum altitude 03:04:23 14° 237° (WSW) 5,565 - -43.9°
Drops below altitude 10° 03:11:47 10° 210° (SSW) 5,300 - -42.5°
Exits shadow 03:16:26 - 193° (SSW) 5,501 13.7 -41.6°
Sets 03:18:02 0° 188° (S) 5,640 13.8 -41.3°
